| time (UTC) | temp F | wind direction | speed MPH | gust MPH | rain 1hr in | rain 24hr in | rain mn in | humidity % | barometer mb |
| 20260504060113 | 55 | 151 | 0.0 | 2.0 | 0.00 | 0.00 | 0.00 | 72 | |
| 20260504050113 | 52 | 142 | 0.0 | 3.0 | 0.00 | 0.00 | 0.00 | 74 | |
| 20260504043104 | 52 | 134 | 0.0 | 1.0 | 0.00 | 0.00 | 0.00 | 76 | |
| 20260504040115 | 51 | 120 | 0.0 | 1.0 | 0.00 | 0.00 | 0.00 | 76 | |
| 20260504033045 | 51 | 154 | 0.0 | 1.0 | 0.00 | 0.00 | 0.00 | 76 | |
| 20260504030116 | 52 | 128 | 0.0 | 1.0 | 0.00 | 0.00 | 0.00 | 74 | |
| 20260504023107 | 54 | 0.0 | 0.0 | 0.00 | 0.00 | 0.00 | 70 | ||
| 20260504020016 | 56 | 153 | 0.0 | 2.0 | 0.00 | 0.00 | 0.00 | 65 | |
| 20260504013107 | 58 | 165 | 1.0 | 3.0 | 0.00 | 0.00 | 0.00 | 59 | |
| 20260504010017 | 58 | 237 | 2.0 | 6.0 | 0.00 | 0.00 | 0.00 | 60 | |
| 20260504003048 | 58 | 253 | 2.0 | 4.0 | 0.00 | 0.00 | 0.00 | 61 | |
| 20260504000017 | 59 | 232 | 2.0 | 6.0 | 0.00 | 0.00 | 0.00 | 61 | |
| 20260503233049 | 60 | 270 | 2.0 | 7.0 | 0.00 | 0.00 | 0.00 | 60 | |
| 20260503230038 | 61 | 248 | 2.0 | 7.0 | 0.00 | 0.00 | 0.00 | 61 | |
| 20260503223050 | 62 | 266 | 3.0 | 10.0 | 0.00 | 0.00 | 0.00 | 60 | |
| 20260503220019 | 62 | 227 | 2.0 | 7.0 | 0.00 | 0.00 | 0.00 | 61 | |
| 20260503213051 | 59 | 196 | 1.0 | 3.0 | 0.00 | 0.00 | 0.00 | 70 | |
| 20260503210021 | 59 | 0.0 | 0.0 | 0.00 | 0.00 | 0.00 | 69 | ||
| 20260503203113 | 61 | 155 | 0.0 | 1.0 | 0.00 | 0.00 | 0.00 | 66 | |
| 20260503200022 | 62 | 154 | 0.0 | 1.0 | 0.00 | 0.00 | 0.00 | 63 | |
| 20260503193053 | 64 | 155 | 0.0 | 2.0 | 0.00 | 0.00 | 0.00 | 59 | |
| 20260503190023 | 66 | 172 | 0.0 | 3.0 | 0.00 | 0.00 | 0.00 | 54 | |
| 20260503183054 | 69 | 187 | 1.0 | 4.0 | 0.00 | 0.00 | 0.00 | 49 | |
| 20260503180024 | 71 | 171 | 1.0 | 3.0 | 0.00 | 0.00 | 0.00 | 46 | |
| 20260503173056 | 72 | 232 | 1.0 | 4.0 | 0.00 | 0.00 | 0.00 | 42 |